Time,TemperatureF,DewpointF,PressureIn,WindDirection,WindDirectionDegrees,WindSpeedMPH,WindSpeedGustMPH,Humidity,HourlyPrecipIn,Conditions,Clouds,dailyrainin,SoftwareType,DateUTC
2013-06-30 00:01:00,66.0,57.0,-100.00,NE,45,0.0,0.0,74,0.00,,,0.00,,2013-06-30 04:01:00,
2013-06-30 00:12:00,66.0,57.0,-100.00,NE,45,5.0,6.0,74,0.00,,,0.00,,2013-06-30 04:12:00,
2013-06-30 00:22:00,66.0,57.0,-100.00,ENE,68,3.0,5.0,74,0.00,,,0.00,,2013-06-30 04:22:00,
2013-06-30 00:33:00,66.0,58.0,-100.00,ENE,68,0.0,0.0,76,0.00,,,0.00,,2013-06-30 04:33:00,
2013-06-30 00:43:00,65.0,57.0,-100.00,North,0,2.0,3.0,75,0.00,,,0.00,,2013-06-30 04:43:00,
2013-06-30 01:02:00,65.0,57.0,-100.00,ENE,68,1.0,3.0,76,0.00,,,0.00,,2013-06-30 05:02:00,
2013-06-30 01:12:00,65.0,57.0,-100.00,ENE,68,0.0,0.0,76,0.00,,,0.00,,2013-06-30 05:12:00,
2013-06-30 01:22:00,65.0,58.0,-100.00,ENE,68,0.0,0.0,77,0.00,,,0.00,,2013-06-30 05:22:00,
2013-06-30 01:33:00,65.0,58.0,-100.00,NE,45,0.0,5.0,77,0.00,,,0.00,,2013-06-30 05:33:00,
2013-06-30 01:43:00,65.0,58.0,-100.00,NE,45,0.0,0.0,78,0.00,,,0.00,,2013-06-30 05:43:00,
2013-06-30 02:02:00,65.0,58.0,-100.00,NE,45,0.0,0.0,78,0.00,,,0.00,,2013-06-30 06:02:00,
2013-06-30 02:12:00,65.0,58.0,-100.00,NE,45,0.0,0.0,79,0.00,,,0.00,,2013-06-30 06:12:00,
2013-06-30 02:34:00,64.0,57.0,-100.00,NE,45,0.0,0.0,79,0.00,,,0.00,,2013-06-30 06:34:00,
2013-06-30 02:43:00,64.0,58.0,-100.00,NE,45,1.0,6.0,80,0.00,,,0.00,,2013-06-30 06:43:00,
2013-06-30 03:02:00,64.0,58.0,-100.00,NE,45,0.0,0.0,80,0.00,,,0.00,,2013-06-30 07:02:00,
2013-06-30 03:12:00,64.0,58.0,-100.00,NE,45,0.0,0.0,81,0.00,,,0.00,,2013-06-30 07:12:00,
2013-06-30 03:33:00,64.0,58.0,-100.00,NE,45,0.0,0.0,82,0.00,,,0.00,,2013-06-30 07:33:00,
2013-06-30 03:44:00,64.0,58.0,-100.00,NE,45,0.0,0.0,82,0.00,,,0.00,,2013-06-30 07:44:00,
2013-06-30 04:02:00,64.0,59.0,-100.00,NE,45,0.0,0.0,84,0.00,,,0.00,,2013-06-30 08:02:00,
2013-06-30 04:12:00,63.0,59.0,-100.00,NE,45,0.0,0.0,86,0.00,,,0.00,,2013-06-30 08:12:00,
2013-06-30 04:33:00,62.0,58.0,-100.00,NE,45,0.0,0.0,87,0.00,,,0.00,,2013-06-30 08:33:00,
2013-06-30 04:42:00,63.0,60.0,-100.00,NE,45,0.0,0.0,89,0.00,,,0.00,,2013-06-30 08:42:00,
2013-06-30 05:01:00,62.0,59.0,-100.00,NE,45,0.0,0.0,91,0.00,,,0.00,,2013-06-30 09:01:00,
2013-06-30 05:12:00,62.0,59.0,-100.00,NE,45,0.0,0.0,91,0.00,,,0.00,,2013-06-30 09:12:00,
2013-06-30 05:34:00,62.0,60.0,-100.00,NE,45,0.0,0.0,92,0.00,,,0.00,,2013-06-30 09:34:00,
2013-06-30 05:43:00,62.0,60.0,-100.00,NE,45,0.0,0.0,92,0.00,,,0.00,,2013-06-30 09:43:00,
2013-06-30 06:02:00,61.0,59.0,-100.00,NE,45,0.0,0.0,93,0.00,,,0.00,,2013-06-30 10:02:00,
2013-06-30 06:11:00,61.0,59.0,-100.00,NE,45,0.0,0.0,93,0.00,,,0.00,,2013-06-30 10:11:00,
2013-06-30 06:33:00,60.0,58.0,-100.00,NE,45,0.0,0.0,94,0.00,,,0.00,,2013-06-30 10:33:00,
2013-06-30 06:42:00,60.0,58.0,-100.00,NE,45,0.0,0.0,94,0.00,,,0.00,,2013-06-30 10:42:00,
2013-06-30 06:53:00,60.0,58.0,-100.00,NE,45,0.0,0.0,94,0.00,,,0.00,,2013-06-30 10:53:00,
2013-06-30 07:02:00,60.0,58.0,-100.00,NE,45,0.0,0.0,94,0.00,,,0.00,,2013-06-30 11:02:00,
2013-06-30 07:11:00,60.0,58.0,-100.00,NE,45,0.0,0.0,93,0.00,,,0.00,,2013-06-30 11:11:00,
2013-06-30 07:33:00,61.0,58.0,-100.00,NE,45,0.0,0.0,91,0.00,,,0.00,,2013-06-30 11:33:00,
2013-06-30 07:43:00,62.0,59.0,-100.00,NE,45,0.0,0.0,90,0.00,,,0.00,,2013-06-30 11:43:00,
2013-06-30 08:02:00,63.0,60.0,-100.00,NE,45,0.0,0.0,90,0.00,,,0.00,,2013-06-30 12:02:00,
2013-06-30 08:11:00,64.0,61.0,-100.00,NE,45,0.0,0.0,89,0.00,,,0.00,,2013-06-30 12:11:00,
2013-06-30 08:33:00,65.0,61.0,-100.00,NNE,23,1.0,6.0,86,0.00,,,0.00,,2013-06-30 12:33:00,
2013-06-30 08:43:00,66.0,61.0,-100.00,North,0,0.0,0.0,84,0.00,,,0.00,,2013-06-30 12:43:00,
2013-06-30 08:52:00,66.0,61.0,-100.00,North,0,0.0,0.0,85,0.00,,,0.00,,2013-06-30 12:52:00,
2013-06-30 09:02:00,66.0,61.0,-100.00,North,0,0.0,0.0,84,0.00,,,0.00,,2013-06-30 13:02:00,
2013-06-30 09:12:00,67.0,62.0,-100.00,North,0,0.0,0.0,84,0.00,,,0.00,,2013-06-30 13:12:00,
2013-06-30 09:34:00,68.0,62.0,-100.00,NNW,338,0.0,0.0,82,0.00,,,0.00,,2013-06-30 13:34:00,
2013-06-30 09:43:00,68.0,62.0,-100.00,North,0,2.0,3.0,82,0.00,,,0.00,,2013-06-30 13:43:00,
2013-06-30 10:02:00,69.0,62.0,-100.00,ENE,68,1.0,2.0,78,0.00,,,0.00,,2013-06-30 14:02:00,
2013-06-30 10:11:00,70.0,62.0,-100.00,NE,45,0.0,0.0,76,0.00,,,0.00,,2013-06-30 14:11:00,
2013-06-30 10:33:00,70.0,61.0,-100.00,North,0,0.0,0.0,74,0.00,,,0.00,,2013-06-30 14:33:00,
2013-06-30 10:44:00,71.0,62.0,-100.00,North,0,1.0,5.0,74,0.00,,,0.00,,2013-06-30 14:44:00,
2013-06-30 11:02:00,71.0,57.0,-100.00,NNE,23,3.0,7.0,61,0.00,,,0.00,,2013-06-30 15:02:00,
2013-06-30 11:12:00,72.0,58.0,-100.00,NNE,23,6.0,6.0,61,0.00,,,0.00,,2013-06-30 15:12:00,
2013-06-30 11:34:00,72.0,56.0,-100.00,NE,45,2.0,7.0,58,0.00,,,0.00,,2013-06-30 15:34:00,
2013-06-30 11:44:00,72.0,56.0,-100.00,NNE,23,2.0,5.0,57,0.00,,,0.00,,2013-06-30 15:44:00,
2013-06-30 12:01:00,73.0,57.0,-100.00,East,90,2.0,6.0,57,0.00,,,0.00,,2013-06-30 16:01:00,
2013-06-30 12:11:00,74.0,57.0,-100.00,NE,45,5.0,5.0,55,0.00,,,0.00,,2013-06-30 16:11:00,
2013-06-30 12:34:00,75.0,57.0,-100.00,SE,135,1.0,2.0,54,0.00,,,0.00,,2013-06-30 16:34:00,
2013-06-30 12:44:00,75.0,57.0,-100.00,ESE,113,3.0,5.0,54,0.00,,,0.00,,2013-06-30 16:44:00,
2013-06-30 12:53:00,76.0,58.0,-100.00,NE,45,3.0,9.0,54,0.00,,,0.00,,2013-06-30 16:53:00,
2013-06-30 13:02:00,76.0,59.0,-100.00,ENE,68,6.0,6.0,55,0.00,,,0.00,,2013-06-30 17:02:00,
2013-06-30 13:11:00,75.0,58.0,-100.00,NE,45,3.0,7.0,55,0.00,,,0.00,,2013-06-30 17:11:00,
2013-06-30 13:34:00,75.0,58.0,-100.00,NE,45,3.0,10.0,55,0.00,,,0.00,,2013-06-30 17:34:00,
2013-06-30 13:43:00,76.0,58.0,-100.00,North,0,3.0,9.0,53,0.00,,,0.00,,2013-06-30 17:43:00,
2013-06-30 14:00:00,77.0,55.0,-100.00,ENE,68,6.0,14.0,46,0.00,,,0.00,,2013-06-30 18:00:00,
2013-06-30 14:02:00,77.0,56.0,-100.00,NNE,23,1.0,6.0,49,0.00,,,0.00,,2013-06-30 18:02:00,
2013-06-30 14:12:00,77.0,55.0,-100.00,ENE,68,6.0,14.0,46,0.00,,,0.00,,2013-06-30 18:12:00,
2013-06-30 14:22:00,77.0,55.0,-100.00,ENE,68,6.0,14.0,46,0.00,,,0.00,,2013-06-30 18:22:00,
2013-06-30 14:34:00,77.0,55.0,-100.00,ENE,68,6.0,14.0,46,0.00,,,0.00,,2013-06-30 18:34:00,
2013-06-30 14:43:00,77.0,55.0,-100.00,ENE,68,6.0,14.0,46,0.00,,,0.00,,2013-06-30 18:43:00,
2013-06-30 14:53:00,77.0,55.0,-100.00,ENE,68,6.0,14.0,46,0.00,,,0.00,,2013-06-30 18:53:00,